logo tempoitalia

Diretta Meteo Dumas-Moore Cty, Stati Uniti (USA)lunedì 31 agosto ore 01:35

Mappa
Sereno 24 °C Sereno 24 Ore: T.min 21 T.max 39
Ponente Sud Km/h 18.5 Punto di rugiada: 13 °C Umidità: 50% Visibilità: 10 Km
Il sole sorge alle: 07:19 Il sole tramonta alle: 20:17
31 Agosto 2026 01:35 tempo osservato: Sereno Sereno 24 50 1016 vento: Nord S 18.5
31 Agosto 2026 01:15 tempo osservato: Sereno Sereno 24 50 1016 vento: Nord S 18.5
31 Agosto 2026 00:55 tempo osservato: Sereno Sereno 25 47 1016 vento: Nord S 20.3
31 Agosto 2026 00:35 tempo osservato: Sereno Sereno 26 44 1016 vento: Nord S 20.3
31 Agosto 2026 00:15 tempo osservato: Sereno Sereno 26 44 1016 vento: Nord S 20.3
30 Agosto 2026 23:55 tempo osservato: Sereno Sereno 26 44 1016 vento: Nord S 20.3
30 Agosto 2026 23:36 tempo osservato: Sereno Sereno 27 42 1016 vento: Nord S 20.3
30 Agosto 2026 23:15 tempo osservato: Sereno Sereno 28 39 1015 vento: Nord S 22.2
30 Agosto 2026 22:56 tempo osservato: Sereno Sereno 27 42 1015 vento: Nord S 20.3
30 Agosto 2026 22:35 tempo osservato: Sereno Sereno 27 42 1015 vento: Nord S 20.3
30 Agosto 2026 22:15 tempo osservato: Sereno Sereno 28 39 1015 vento: Nord S/SE 18.5
30 Agosto 2026 21:55 tempo osservato: Sereno Sereno 28 37 1015 vento: Nord S 20.3
30 Agosto 2026 21:35 tempo osservato: Sereno Sereno 28 39 1014 vento: Nord S/SE 18.5
30 Agosto 2026 21:16 tempo osservato: Sereno Sereno 29 35 1014 vento: Nord S 18.5
30 Agosto 2026 20:56 tempo osservato: Sereno Sereno 30 33 1014 vento: Nord S/SE 20.3
30 Agosto 2026 20:35 tempo osservato: Sereno Sereno 31 31 1014 vento: Nord S 22.2
30 Agosto 2026 20:15 tempo osservato: Sereno Sereno 32 29 1014 vento: Nord S 20.3
30 Agosto 2026 19:56 tempo osservato: Sereno Sereno 33 27 1013 vento: Nord S 24
30 Agosto 2026 19:35 tempo osservato: Sereno Sereno 34 28 1013 vento: Nord S 24
30 Agosto 2026 19:16 tempo osservato: Sereno Sereno 34 26 1013 vento: Nord S/SE 25.9
30 Agosto 2026 18:56 tempo osservato: Poco Nuvoloso Poco Nuvoloso 35 24 1013 vento: Nord S/SE 27.8
30 Agosto 2026 18:35 tempo osservato: Nuvoloso Nuvoloso 37 23 1013 vento: Nord S/SE 27.8
30 Agosto 2026 18:16 tempo osservato: Nuvoloso Nuvoloso 37 23 1013 vento: Nord S 22.2
30 Agosto 2026 17:55 tempo osservato: Nuvoloso Nuvoloso 37 23 1013 vento: Nord S/SE 20.3
30 Agosto 2026 17:35 tempo osservato: Poco Nuvoloso Poco Nuvoloso 35 32 1014 vento: Nord SE 13
30 Agosto 2026 17:15 tempo osservato: Temporale nelle vicinanze Temporale nelle vicinanze 35 30 1014 vento: Nord SE 18.5
30 Agosto 2026 16:55 tempo osservato: Temporale Temporale 31 40 1014 vento: Nord SE 33.3
30 Agosto 2026 16:35 tempo osservato: Temporale Temporale 29 48 1014 vento: Nord S/SE 29.6
30 Agosto 2026 16:15 tempo osservato: Sereno Sereno 34 32 1014 vento: Nord S 29.6
30 Agosto 2026 15:55 tempo osservato: Nuvoloso Nuvoloso 38 22 1014 vento: Nord S 31.5
30 Agosto 2026 15:35 tempo osservato: Molto Nuvoloso Molto Nuvoloso 38 22 1014 vento: Nord S/SO 29.6
30 Agosto 2026 15:15 tempo osservato: Poco Nuvoloso Poco Nuvoloso 38 22 1014 vento: Nord S 18.5
30 Agosto 2026 14:55 tempo osservato: Sereno Sereno 38 22 1015 vento: Nord S 14.8
30 Agosto 2026 14:35 tempo osservato: Poco Nuvoloso Poco Nuvoloso 39 21 1015 vento: Nord S/SO 24
30 Agosto 2026 14:16 tempo osservato: Poco Nuvoloso Poco Nuvoloso 38 24 1015 vento: Nord S 29.6
30 Agosto 2026 13:55 tempo osservato: Sereno Sereno 38 21 1015 vento: Nord SO 20.3
30 Agosto 2026 13:35 tempo osservato: Sereno Sereno 38 19 1015 vento: Nord SO 14.8
30 Agosto 2026 13:15 tempo osservato: Sereno Sereno 37 22 1016 vento: Nord S/SO 14.8
30 Agosto 2026 12:55 tempo osservato: Sereno Sereno 37 22 1016 vento: Nord SO 14.8
30 Agosto 2026 12:35 tempo osservato: Sereno Sereno 36 23 1016 vento: Nord S/SO 20.3
30 Agosto 2026 12:15 tempo osservato: Sereno Sereno 36 25 1016 vento: Nord SO 27.8
30 Agosto 2026 11:55 tempo osservato: Sereno Sereno 35 26 1017 vento: Nord S/SO 24
30 Agosto 2026 11:35 tempo osservato: Sereno Sereno 35 26 1017 vento: Nord S/SO 33.3
30 Agosto 2026 11:15 tempo osservato: Sereno Sereno 34 28 1017 vento: Nord SO 35.2
30 Agosto 2026 10:55 tempo osservato: Sereno Sereno 33 31 1016 vento: Nord SO 29.6
30 Agosto 2026 10:35 tempo osservato: Sereno Sereno 32 31 1016 vento: Nord SO 33.3
30 Agosto 2026 10:15 tempo osservato: Sereno Sereno 31 35 1017 vento: Nord O/SO 31.5
30 Agosto 2026 09:55 tempo osservato: Sereno Sereno 31 35 1017 vento: Nord O/SO 35.2
30 Agosto 2026 09:35 tempo osservato: Sereno Sereno 29 39 1017 vento: Nord SO 29.6
30 Agosto 2026 09:15 tempo osservato: Sereno Sereno 29 39 1017 vento: Nord SO 35.2
30 Agosto 2026 08:55 tempo osservato: Sereno Sereno 27 44 1017 vento: Nord S/SO 25.9
30 Agosto 2026 08:35 tempo osservato: Sereno Sereno 25 47 1017 vento: Nord S/SO 18.5
30 Agosto 2026 08:15 tempo osservato: Sereno Sereno 24 50 1017 vento: Nord S/SO 18.5
30 Agosto 2026 07:55 tempo osservato: Sereno Sereno 22 56 1017 vento: Nord S 13
30 Agosto 2026 07:35 tempo osservato: Sereno Sereno 21 60 1017 vento: Nord S 14.8
30 Agosto 2026 07:15 tempo osservato: Sereno Sereno 22 56 1017 vento: Nord S 11.1
30 Agosto 2026 06:55 tempo osservato: Sereno Sereno 23 53 1017 vento: Nord S/SO 14.8
30 Agosto 2026 06:35 tempo osservato: Sereno Sereno 23 49 1016 vento: Nord S/SO 18.5
30 Agosto 2026 06:15 tempo osservato: Sereno Sereno 24 47 1016 vento: Nord S/SO 20.3
30 Agosto 2026 05:55 tempo osservato: Sereno Sereno 24 47 1016 vento: Nord S/SO 20.3
30 Agosto 2026 05:35 tempo osservato: Sereno Sereno 24 47 1016 vento: Nord S/SO 22.2
30 Agosto 2026 05:15 tempo osservato: Sereno Sereno 24 47 1016 vento: Nord S/SO 18.5
30 Agosto 2026 04:55 tempo osservato: Sereno Sereno 24 47 1016 vento: Nord SO 18.5
30 Agosto 2026 04:35 tempo osservato: Sereno Sereno 24 47 1016 vento: Nord S/SO 18.5
30 Agosto 2026 04:15 tempo osservato: Sereno Sereno 25 44 1016 vento: Nord S/SO 20.3
30 Agosto 2026 03:55 tempo osservato: Sereno Sereno 25 44 1016 vento: Nord S/SO 22.2
30 Agosto 2026 03:35 tempo osservato: Sereno Sereno 26 41 1016 vento: Nord S/SO 25.9
30 Agosto 2026 03:15 tempo osservato: Sereno Sereno 25 44 1016 vento: Nord S/SO 24
30 Agosto 2026 02:55 tempo osservato: Sereno Sereno 25 44 1016 vento: Nord S/SO 22.2
30 Agosto 2026 02:35 tempo osservato: Sereno Sereno 26 41 1017 vento: Nord S/SO 20.3
30 Agosto 2026 02:15 tempo osservato: Sereno Sereno 26 41 1017 vento: Nord S/SO 24
30 Agosto 2026 01:55 tempo osservato: Sereno Sereno 27 39 1017 vento: Nord S/SO 24
30 Agosto 2026 01:35 tempo osservato: Sereno Sereno 27 39 1017 vento: Nord S/SO 25.9